Simultaneous Nadir Overpasses (SNOs) Predictions

Prediction of SNOs between AQUA and NPP Satellite Orbit:

Table of predicted SNOs for the next 14.0 days since TLE Epoch: 1/20/2012
Index Date (AQUA) Time (AQUA) Lat,Lon (AQUA) SZA (AQUA ) Date (NPP) Time (NPP) Lat,Lon (NPP) SZA (NPP ) Distance(km) Time Diff (sec)
1 01/22/2012 06:21:14 -76.29, 144.56 63.19 01/22/2012 06:20:46 -76.29, 144.57 63.17 0.44 28
2 01/22/2012 07:10:19 77.26, -44.32 115.67 01/22/2012 07:11:08 77.27, -44.28 115.62 1.21 49
3 01/24/2012 21:48:23 75.77, 91.19 116.83 01/24/2012 21:47:12 75.77, 91.23 116.89 0.92 71
4 01/24/2012 22:37:27 -76.90, -97.45 64.47 01/24/2012 22:37:33 -76.91, -97.37 64.50 2.37 6
5 01/27/2012 14:04:35 76.46,-150.73 115.43 01/27/2012 14:04:03 76.46,-150.67 115.44 1.74 32
6 01/27/2012 14:53:49 -77.10, 19.17 65.33 01/27/2012 14:54:35 -77.09, 19.10 65.35 1.87 46
7 01/30/2012 05:31:46 -75.93, 155.85 64.63 01/30/2012 05:30:41 -75.94, 155.88 64.59 1.01 65
8 01/30/2012 06:20:48 77.05, -32.72 114.07 01/30/2012 06:21:00 77.06, -32.63 114.04 2.35 12
9 02/01/2012 21:47:57 -76.61, -86.05 66.12 02/01/2012 21:47:41 -76.62, -86.03 66.11 0.62 16




NCC Satellite Simultaneous Nadir Overpasses (SNOs) Prediction Service
